Total_Precipitation_Accumulation
1.22 1.18 1.06 0.86 0.75 0.76 0.77 0.73 0.68 0.71 0.66 0.68 0.66 0.69 0.80 0.79 0.78 0.87 0.92 0.93 0.98 1.06 1.11 1.12 1.25 1.40 1.48 1.53 1.54 1.48 1.43 1.32 1.11 0.97 0.74 0.57 0.57 0.55 0.56 0.47 0.48 0.48 0.39
0.93 0.84 0.72 0.57 0.51 0.56 0.57 0.52 0.44 0.47 0.44 0.51 0.55 0.54 0.69 0.85 0.87 0.89 0.89 0.83 0.83 0.85 0.89 0.95 1.05 1.12 1.20 1.33 1.44 1.41 1.41 1.39 1.24 1.11 0.92 0.75 0.66 0.62 0.67 0.65 0.62 0.61 0.58
0.87 0.72 0.64 0.57 0.54 0.53 0.47 0.40 0.32 0.31 0.33 0.38 0.51 0.50 0.54 0.71 0.82 0.81 0.76 0.74 0.75 0.76 0.78 0.81 0.86 0.95 1.07 1.12 1.21 1.31 1.35 1.34 1.32 1.20 1.13 1.03 0.86 0.74 0.74 0.71 0.74 0.83 0.83
1.05 0.84 0.72 0.66 0.56 0.47 0.37 0.34 0.29 0.32 0.36 0.35 0.35 0.37 0.43 0.53 0.65 0.65 0.62 0.61 0.60 0.63 0.73 0.76 0.79 0.83 0.91 0.99 1.05 1.17 1.27 1.32 1.28 1.19 1.14 1.08 0.99 0.93 0.88 0.86 0.92 1.00 1.03
0.73 0.54 0.46 0.44 0.39 0.31 0.25 0.23 0.22 0.22 0.22 0.24 0.21 0.22 0.27 0.34 0.39 0.39 0.45 0.50 0.54 0.59 0.65 0.69 0.72 0.69 0.70 0.78 0.79 0.94 1.09 1.21 1.23 1.23 1.15 1.07 0.99 0.96 0.94 0.92 0.97 1.10 1.15
0.35 0.29 0.25 0.21 0.18 0.16 0.15 0.15 0.11 0.09 0.09 0.14 0.14 0.16 0.20 0.22 0.26 0.23 0.27 0.40 0.50 0.55 0.59 0.63 0.68 0.68 0.64 0.61 0.60 0.66 0.80 0.92 1.01 1.10 1.12 1.05 0.99 0.95 0.98 1.03 1.02 1.09 1.25
0.08 0.07 0.06 0.07 0.07 0.06 0.06 0.07 0.07 0.06 0.06 0.08 0.08 0.13 0.17 0.13 0.15 0.13 0.23 0.44 0.50 0.49 0.48 0.59 0.70 0.74 0.78 0.82 0.68 0.64 0.67 0.71 0.76 0.89 0.95 0.94 0.94 0.94 0.93 1.00 1.06 1.08 1.01
0.01 0.01 0.01 0.02 0.03 0.04 0.05 0.05 0.03 0.02 0.03 0.07 0.08 0.14 0.14 0.09 0.10 0.13 0.19 0.36 0.45 0.42 0.42 0.52 0.67 0.78 0.83 0.84 0.78 0.81 0.78 0.68 0.63 0.68 0.83 0.87 0.87 0.97 1.03 1.10 1.16 1.11 1.09
0.00 0.00 0.00 0.00 0.01 0.02 0.02 0.02 0.01 0.01 0.02 0.05 0.09 0.10 0.07 0.04 0.06 0.10 0.18 0.35 0.43 0.44 0.41 0.48 0.63 0.72 0.81 0.82 0.78 0.89 0.90 0.70 0.59 0.65 0.69 0.74 0.81 0.91 1.03 1.09 1.12 1.09 1.11
0.00 0.00 0.00 0.00 0.00 0.01 0.01 0.01 0.01 0.01 0.01 0.02 0.04 0.06 0.05 0.06 0.05 0.05 0.12 0.23 0.32 0.40 0.41 0.45 0.65 0.71 0.71 0.69 0.70 0.90 1.00 0.86 0.62 0.56 0.61 0.71 0.77 0.88 1.07 1.15 1.24 1.16 0.99
0.00 0.00 0.00 0.00 0.00 0.02 0.03 0.02 0.01 0.01 0.01 0.01 0.02 0.03 0.03 0.03 0.05 0.05 0.10 0.12 0.16 0.22 0.27 0.33 0.37 0.48 0.51 0.54 0.62 0.75 0.85 0.75 0.66 0.73 0.81 0.83 0.88 0.91 0.96 1.05 1.21 1.26 1.10
0.00 0.00 0.00 0.01 0.01 0.02 0.05 0.04 0.02 0.01 0.01 0.01 0.02 0.03 0.03 0.03 0.03 0.03 0.06 0.07 0.09 0.13 0.17 0.23 0.27 0.36 0.41 0.46 0.52 0.54 0.58 0.63 0.68 0.81 0.84 0.76 0.79 0.83 0.80 0.84 0.96 1.04 0.90
0.00 0.00 0.00 0.00 0.01 0.02 0.02 0.02 0.02 0.01 0.01 0.01 0.02 0.03 0.04 0.05 0.03 0.03 0.03 0.04 0.05 0.07 0.10 0.17 0.21 0.29 0.30 0.36 0.43 0.43 0.49 0.69 0.79 0.74 0.72 0.69 0.67 0.68 0.64 0.70 0.85 0.94 0.86
0.00 0.00 0.00 0.00 0.01 0.02 0.01 0.01 0.01 0.01 0.01 0.02 0.02 0.03 0.04 0.07 0.03 0.01 0.03 0.05 0.07 0.09 0.11 0.15 0.19 0.27 0.30 0.33 0.38 0.45 0.54 0.65 0.78 0.66 0.56 0.57 0.56 0.61 0.65 0.61 0.66 0.72 0.81
0.00 0.00 0.00 0.00 0.01 0.02 0.01 0.00 0.00 0.00 0.00 0.01 0.01 0.03 0.02 0.02 0.01 0.01 0.02 0.04 0.07 0.08 0.12 0.21 0.32 0.43 0.43 0.44 0.49 0.53 0.56 0.51 0.55 0.52 0.51 0.56 0.58 0.58 0.62 0.60 0.55 0.52 0.53
0.00 0.00 0.00 0.00 0.01 0.01 0.02 0.01 0.00 0.00 0.01 0.01 0.00 0.01 0.01 0.01 0.01 0.04 0.07 0.06 0.07 0.09 0.18 0.24 0.36 0.50 0.54 0.56 0.56 0.57 0.59 0.54 0.52 0.47 0.48 0.49 0.49 0.48 0.48 0.52 0.51 0.51 0.47
0.00 0.00 0.00 0.00 0.00 0.00 0.01 0.03 0.02 0.01 0.00 0.00 0.00 0.00 0.00 0.01 0.02 0.03 0.06 0.08 0.11 0.18 0.20 0.26 0.43 0.49 0.45 0.45 0.50 0.52 0.48 0.38 0.36 0.34 0.30 0.30 0.31 0.31 0.30 0.35 0.40 0.40 0.35
0.00 0.00 0.00 0.00 0.00 0.00 0.00 0.01 0.01 0.03 0.04 0.03 0.01 0.00 0.00 0.00 0.01 0.02 0.04 0.07 0.14 0.19 0.22 0.35 0.48 0.50 0.44 0.36 0.31 0.26 0.22 0.18 0.17 0.18 0.18 0.17 0.21 0.23 0.23 0.23 0.25 0.25 0.25
0.00 0.00 0.00 0.00 0.00 0.00 0.00 0.00 0.00 0.01 0.01 0.03 0.03 0.02 0.01 0.01 0.01 0.01 0.02 0.05 0.08 0.10 0.17 0.26 0.33 0.39 0.32 0.19 0.11 0.08 0.07 0.07 0.08 0.10 0.11 0.12 0.13 0.15 0.18 0.19 0.18 0.19 0.19
0.00 0.00 0.00 0.00 0.00 0.00 0.00 0.00 0.00 0.00 0.01 0.01 0.01 0.01 0.02 0.02 0.02 0.02 0.01 0.02 0.04 0.04 0.05 0.07 0.09 0.09 0.06 0.04 0.03 0.03 0.03 0.04 0.04 0.05 0.06 0.07 0.08 0.10 0.12 0.13 0.12 0.11 0.13
0.00 0.00 0.00 0.00 0.00 0.00 0.00 0.01 0.01 0.01 0.01 0.01 0.00 0.00 0.00 0.01 0.02 0.02 0.02 0.02 0.01 0.01 0.01 0.01 0.01 0.01 0.01 0.01 0.02 0.02 0.02 0.03 0.04 0.04 0.05 0.05 0.06 0.07 0.09 0.10 0.10 0.08 0.08
0.00 0.00 0.00 0.00 0.00 0.00 0.00 0.00 0.01 0.01 0.01 0.01 0.01 0.00 0.00 0.01 0.01 0.01 0.02 0.02 0.01 0.01 0.01 0.01 0.01 0.01 0.01 0.01 0.01 0.01 0.02 0.03 0.03 0.04 0.04 0.05 0.05 0.05 0.05 0.06 0.07 0.06 0.05
0.00 0.00 0.00 0.00 0.00 0.00 0.00 0.00 0.00 0.01 0.01 0.01 0.01 0.01 0.01 0.01 0.01 0.01 0.01 0.01 0.02 0.01 0.01 0.01 0.01 0.01 0.01 0.01 0.01 0.01 0.01 0.02 0.03 0.05 0.06 0.06 0.05 0.05 0.04 0.04 0.04 0.04 0.04
0.00 0.00 0.00 0.00 0.00 0.00 0.00 0.00 0.00 0.00 0.00 0.01 0.01 0.01 0.01 0.01 0.01 0.01 0.01 0.01 0.01 0.01 0.01 0.01 0.02 0.02 0.02 0.02 0.02 0.01 0.01 0.01 0.02 0.04 0.06 0.08 0.07 0.05 0.04 0.04 0.04 0.03 0.03
0.00 0.00 0.00 0.00 0.00 0.00 0.00 0.00 0.00 0.00 0.00 0.00 0.01 0.01 0.01 0.01 0.01 0.01 0.01 0.00 0.01 0.01 0.01 0.02 0.02 0.02 0.02 0.02 0.02 0.02 0.03 0.02 0.02 0.03 0.05 0.07 0.08 0.08 0.06 0.04 0.03 0.03 0.03
0.00 0.00 0.00 0.00 0.00 0.00 0.00 0.00 0.00 0.00 0.00 0.01 0.01 0.01 0.01 0.01 0.01 0.01 0.00 0.00 0.00 0.01 0.01 0.02 0.02 0.02 0.03 0.03 0.03 0.04 0.04 0.03 0.02 0.02 0.03 0.06 0.08 0.09 0.08 0.06 0.04 0.03 0.02